Regional Weather Roundup
Issued by NWS State College, PA

Home | Current Version | Previous Version | Text Only | Print | Product List | Glossary Off
Versions: 1 2 3 4 5 6 7 8 9 10 11 12 13 14 15 16 17 18 19 20 21 22 23 24 25 26 27 28 29 30 31 32 33 34 35 36 37 38 39 40 41 42 43 44 45 46 47 48 49 50

000
ASUS41 KCTP 271503
RWRCTP

REGIONAL WEATHER ROUNDUP
NATIONAL WEATHER SERVICE STATE COLLEGE PA
1100 AM EDT MON JUL 27 2015

Note: "fair" indicates few or no clouds below 12,000 feet with no
significant weather and/or obstructions to visibility.

* = STATION THAT DOES NOT REPORT PRECIPITATION /E.G. RAIN...SNOW...ETC/
    THUNDER OR FOG.

PAZ002>004-007>009-013>016-020>023-029>032-271600-
WESTERN PENNSYLVANIA

CITY           SKY/WX    TMP DP  RH WIND       PRES   REMARKS
ERIE           SUNNY     83  65  54 N6        30.04S
MEADVILLE      SUNNY     81  63  54 NE10      30.06S
FRANKLIN*      SUNNY     75  64  69 NE6       30.08R
NEW CASTLE     FAIR      79  71  76 CALM      30.05R
BEAVER COUNTY  SUNNY     79  64  61 CALM      30.05R
BUTLER*        SUNNY     75  70  83 NE5       30.07R
PITTSBURGH INT MOSUNNY   80  65  59 VRB3      30.04R
PITTSBURGH     MOSUNNY   79  65  62 VRB3      30.04R
INDIANA*       CLOUDY    79  70  73 VRB5      30.07F
LATROBE        PTSUNNY   79  72  78 CALM      30.05R
WASHINGTON CO* NOT AVBL
$$

PAZ004>006-010>012-017>019-024>028-033>037-041-042-045-046-049>053-271600-
CENTRAL PENNSYLVANIA

CITY           SKY/WX    TMP DP  RH WIND       PRES   REMARKS
BRADFORD       MOSUNNY   75  62  64 E10       30.10R
DUBOIS         MOSUNNY   79  65  62 E8        30.06S
CLEARFIELD     MOSUNNY   73  66  78 E7        30.07S
JOHNSTOWN      PTSUNNY   75  66  73 N6        30.08S
ALTOONA        PTSUNNY   77  67  71 VRB6      30.06S
STATE COLLEGE  CLOUDY    70  68  94 CALM      30.07R FOG
WILLIAMSPORT   MOSUNNY   77  69  76 VRB5      30.02F
SELINSGROVE    CLOUDY    74  69  85 E3        30.04R
FT INDIANTOWN  PTSUNNY   75  68  78 VRB2      30.04R
CAPITAL CITY   CLOUDY    76  68  76 E5        30.03R
HARRISBURG     CLOUDY    77  69  76 N3        30.02R
YORK           CLOUDY    75  69  81 CALM      30.03R
$$

PAZ038>040-043-044-047-048-054-055-060>062-067>071-271600-
EASTERN PENNSYLVANIA

CITY           SKY/WX    TMP DP  RH WIND       PRES   REMARKS
SCRANTON       CLOUDY    75  67  76 CALM      30.06S
MOUNT POCONO   CLOUDY    70  65  84 CALM      30.10R
ALLENTOWN      PTSUNNY   77  68  73 CALM      30.04S
QUAKERTOWN*    NOT AVBL
READING        CLOUDY    76  68  76 CALM      30.03S
LANCASTER      CLOUDY    76  70  82 E5        30.04R
COATESVILLE    CLOUDY    73  72  94 CALM      30.06S
POTTSTOWN      CLOUDY    74  68  81 SW3       30.06S
BLUE BELL      PTSUNNY   79  72  78 CALM      30.04S
DOYLESTOWN     MOSUNNY   76  69  79 VRB3      30.04S
WILLOW GROVE   NOT AVBL
NORTH PHILA    PTSUNNY   81  66  60 SW6       30.05S
PHILADELPHIA   PTSUNNY   79  69  71 VRB5      30.04S
$$



USA.gov is the U.S. government's official web portal to all federal, state and local government web resources and services.